Theta_e
327 325 325 325 325 326 326 326 327 329 327 325 325 324 324 323 323 324 324 325 325 326 326 327 327 328 327 327 326 326 328 330 329 327 327 328 326 324 323 323 320 317 315 315 315 318 324 329 330 331 332 331 331 331 331 330 329 327 326 326 325 324
328 326 327 326 326 326 327 329 329 330 329 327 326 326 326 326 326 325 326 326 327 327 328 327 328 328 328 328 327 327 328 329 330 328 327 327 326 325 324 323 322 321 317 315 315 316 320 325 329 331 331 331 331 331 330 330 329 328 327 326 326 325
327 327 328 327 326 326 328 329 328 329 329 328 329 328 327 328 328 328 328 328 328 329 329 328 328 328 328 328 328 328 329 330 330 329 328 327 326 325 324 323 322 322 320 317 316 316 317 321 327 331 331 331 331 330 330 330 330 328 327 327 326 326
327 328 328 327 327 327 328 328 327 328 328 328 330 330 328 328 329 329 329 329 329 329 329 329 329 329 329 329 328 329 330 330 330 330 330 328 327 327 325 324 323 321 321 320 318 318 318 320 325 330 330 331 331 330 330 329 329 328 327 327 326 326
327 328 328 328 327 327 327 328 328 328 328 328 329 329 328 328 329 329 329 329 329 329 329 329 330 329 329 329 329 329 329 329 330 330 329 329 328 328 326 324 322 321 320 321 319 318 319 320 323 328 330 330 330 330 330 329 329 328 328 327 326 326
329 328 328 328 328 328 327 328 328 328 329 329 329 328 328 328 328 329 329 329 329 329 329 330 330 330 330 330 329 329 329 329 329 329 329 328 328 327 327 325 322 321 321 321 320 319 319 320 322 326 328 330 330 329 329 330 329 329 328 328 327 326
329 328 329 328 328 328 328 329 329 329 329 329 329 329 328 328 329 329 329 329 329 329 329 330 330 330 330 330 329 329 329 329 329 329 328 327 326 325 326 326 323 322 323 322 320 319 319 319 321 324 326 328 329 328 328 328 329 329 328 328 327 326
328 329 329 329 329 329 330 329 329 330 329 329 329 330 329 329 329 329 329 329 329 329 330 330 330 331 331 331 330 329 329 329 328 328 327 326 325 323 324 326 324 323 325 323 320 319 319 320 321 323 325 327 328 328 328 327 328 329 329 328 327 326
328 329 330 330 330 330 330 331 331 332 332 332 332 332 332 332 332 331 330 330 330 331 331 331 331 331 331 331 330 329 329 330 329 328 327 327 324 323 324 325 326 326 327 324 320 318 319 320 322 322 324 327 327 327 328 327 327 329 329 328 327 328
328 329 330 332 332 333 334 334 334 335 335 334 334 334 334 334 334 334 333 332 333 333 333 333 332 332 332 331 330 329 329 329 329 328 328 327 325 324 324 326 328 328 327 325 320 318 320 321 322 322 323 326 327 326 327 326 326 328 329 328 329 330
329 330 332 335 335 335 335 335 334 334 335 335 335 335 334 334 335 334 334 333 333 333 333 333 333 332 332 331 330 330 329 329 329 328 328 328 326 325 325 326 329 329 328 325 322 322 324 324 323 321 323 325 326 326 325 325 326 327 328 329 330 331
332 334 335 334 334 333 333 332 332 332 333 333 333 333 332 332 332 331 331 332 332 332 332 332 332 333 332 330 329 330 330 329 329 329 329 329 328 327 326 327 329 329 329 326 325 326 327 327 326 323 323 325 326 325 324 325 326 328 328 329 329 330
336 336 334 332 331 332 331 330 331 331 332 332 331 331 331 331 330 330 330 331 331 332 332 331 330 331 331 330 329 330 329 330 329 329 329 329 329 329 328 328 328 329 329 327 326 327 327 327 327 326 324 324 325 326 325 326 327 327 327 328 328 329
336 335 332 330 331 330 330 330 330 330 330 330 330 330 330 330 330 330 330 330 330 331 331 330 330 331 330 330 329 329 329 329 329 329 329 329 329 329 329 329 329 329 329 327 327 327 327 327 327 326 326 325 325 325 325 326 327 327 327 327 327 328
333 332 330 330 329 328 328 328 328 328 328 328 329 329 329 329 330 329 329 329 329 330 330 330 330 330 329 329 329 328 329 328 328 329 329 329 329 329 329 330 329 329 329 327 326 326 326 326 326 326 326 326 326 326 326 326 326 326 326 327 327 327
330 330 330 329 328 327 326 326 326 326 325 325 326 326 326 326 327 327 328 328 329 330 330 330 330 330 329 328 328 328 328 327 328 329 328 328 328 328 329 330 330 329 329 328 327 326 326 326 325 325 325 326 326 325 326 326 326 326 326 325 326 327
330 330 329 328 327 326 326 325 324 324 324 324 323 323 322 323 325 326 327 327 329 329 328 328 328 328 328 328 327 328 328 326 328 328 326 327 328 329 329 329 330 329 329 329 328 327 327 326 325 325 325 325 325 325 325 325 326 326 326 325 325 326
330 329 329 328 327 325 323 322 322 323 324 323 322 322 322 322 322 324 325 325 327 328 327 327 328 328 328 329 328 328 327 327 327 326 326 327 328 329 328 328 329 329 329 329 328 328 328 327 327 326 325 325 325 325 324 325 325 326 326 326 325 325
330 330 329 328 326 322 320 318 318 320 322 323 321 321 322 322 322 322 323 323 324 325 324 326 326 327 327 328 328 327 327 327 326 326 326 326 326 328 327 327 328 329 329 329 328 329 328 328 328 325 322 323 325 325 325 325 325 326 326 326 326 326
330 330 328 326 321 318 317 315 315 316 320 321 320 320 322 322 322 321 320 320 320 320 321 323 324 325 326 327 327 327 327 327 326 326 326 325 324 326 326 326 326 328 329 329 328 328 328 328 326 322 320 322 325 326 326 327 326 327 326 326 326 326
330 330 328 324 318 314 315 313 314 317 319 320 319 320 321 321 321 320 320 320 319 320 322 323 324 324 325 326 327 327 327 327 326 326 326 325 325 326 327 326 326 328 329 328 327 327 328 327 325 323 321 322 325 325 326 326 326 326 326 326 327 326
330 329 328 325 318 314 314 313 315 317 318 318 319 320 320 320 319 318 319 317 316 320 323 324 324 324 324 325 326 326 326 326 326 326 326 326 327 328 328 326 326 327 328 328 328 327 327 327 326 325 324 323 324 324 325 325 325 325 325 326 326 326
330 329 328 324 317 313 313 313 314 315 317 317 318 318 317 317 316 314 313 311 312 318 323 323 323 323 323 324 324 324 325 324 325 325 326 326 327 328 327 326 326 326 327 327 327 327 327 327 327 327 327 325 324 325 325 325 325 325 325 325 325 326
330 329 328 321 314 314 313 313 313 314 314 315 316 315 313 312 313 312 310 309 310 313 317 319 320 321 321 322 322 323 323 323 323 323 324 325 326 326 325 325 325 325 326 327 327 327 327 327 327 327 327 326 326 326 326 326 325 325 325 324 324 326
329 329 325 317 313 314 314 314 313 313 313 313 313 312 310 310 311 311 310 309 309 309 311 314 315 317 318 319 319 318 319 319 320 320 321 322 323 324 324 324 324 324 325 325 326 326 327 327 327 327 327 326 326 326 326 326 326 325 325 324 324 324
329 328 322 315 313 314 314 314 314 313 313 313 312 310 308 309 309 309 308 308 308 308 310 314 315 316 317 317 315 315 315 316 318 318 319 320 322 323 323 323 323 323 324 325 325 326 326 327 327 327 327 327 326 326 325 325 325 325 326 326 325 325
328 327 320 314 313 314 315 315 314 313 313 313 312 310 308 307 307 307 307 306 307 308 311 315 316 316 317 317 316 317 318 319 320 320 321 322 322 323 322 320 319 318 320 323 324 324 325 326 326 326 326 326 326 325 325 325 325 325 325 326 326 326
328 325 318 314 312 314 315 315 313 312 313 314 314 311 308 307 307 306 306 306 306 307 311 314 316 316 317 318 318 319 319 321 322 322 322 322 322 322 320 319 317 313 315 322 324 324 325 325 325 325 325 325 326 326 325 325 325 324 324 325 324 323
327 323 316 313 312 314 315 314 314 313 315 316 315 313 309 307 307 306 306 306 306 307 309 313 316 316 316 318 318 318 317 319 320 321 321 321 321 320 316 315 313 310 314 322 324 324 325 325 325 326 325 325 324 325 325 324 324 324 324 323 320 319
327 322 314 312 312 313 315 314 314 315 316 316 314 312 309 307 307 307 306 306 306 306 307 310 313 314 316 318 317 316 316 315 316 318 319 318 316 313 309 307 307 310 317 322 324 324 325 325 325 325 325 325 325 325 325 324 323 323 323 322 318 315
326 320 313 311 313 314 316 314 314 315 316 315 313 310 309 308 307 307 306 306 305 305 306 307 309 312 315 317 317 315 313 310 309 311 312 310 308 306 304 303 305 311 317 320 320 320 321 323 324 324 324 324 324 324 323 322 322 322 322 322 319 316
325 319 313 313 315 315 315 314 314 315 316 316 314 310 308 308 307 307 306 306 305 305 306 305 307 310 313 316 316 311 307 305 305 306 306 306 305 305 305 304 305 308 310 311 310 310 311 314 318 321 322 323 323 323 322 321 321 321 320 319 318 317
323 318 316 317 318 316 313 313 313 315 317 317 315 311 308 308 307 306 306 305 305 305 306 305 306 309 312 314 313 308 305 305 306 305 306 306 306 306 306 305 305 305 306 305 305 305 305 306 309 312 315 317 318 318 317 316 314 313 311 310 309 312
324 319 317 318 319 317 315 315 315 317 319 319 317 311 308 308 307 307 306 306 305 305 305 305 306 308 311 311 309 306 305 306 306 306 306 306 306 306 305 306 306 306 306 305 305 305 305 305 305 306 306 307 308 308 308 307 306 305 305 305 304 306
322 317 317 318 316 315 316 318 319 319 319 321 318 311 307 308 307 306 306 306 305 305 306 305 306 307 308 308 306 305 305 305 305 306 306 305 305 305 305 305 305 305 305 305 305 305 305 305 305 305 305 304 304 304 303 303 303 303 303 303 304 304
322 318 319 317 315 313 314 317 321 321 320 321 318 311 308 308 307 307 306 306 306 306 305 305 305 306 306 306 305 305 305 305 305 305 305 305 305 304 304 304 304 304 304 304 304 304 304 304 304 304 304 303 303 303 303 303 303 303 303 303 303 303
323 322 322 320 318 316 314 315 319 322 322 322 317 310 308 308 307 307 307 307 307 306 306 306 305 305 305 305 305 305 305 305 306 306 305 305 305 305 304 304 304 304 304 304 304 304 304 303 304 304 304 304 304 304 305 305 305 305 305 304 304 303
Wind_Speed
23 23 23 22 21 20 19 18 16 15 15 14 14 13 12 11 11 11 10 8 7 6 5 4 3 2 2 2 3 3 4 4 5 6 6 6 5 5 5 5 5 5 5 6 8 13 16 16 15 13 11 8 5 6 9 9 8 8 9 8 7 6
22 22 22 21 20 20 19 18 16 16 14 14 13 13 12 11 11 9 8 7 6 5 4 3 2 1 1 1 1 2 3 4 5 5 5 5 4 4 4 5 4 4 4 5 6 9 14 17 16 14 11 8 6 6 8 9 8 8 8 8 6 5
22 21 21 20 20 19 18 17 16 15 14 13 12 12 12 11 10 9 8 7 6 5 4 3 2 2 2 2 2 2 3 4 5 5 5 4 3 3 3 4 5 4 4 4 5 7 11 15 16 14 12 10 7 6 7 7 8 7 7 7 6 4
22 20 20 19 19 18 17 16 15 14 13 12 10 10 10 9 9 8 8 7 6 5 4 3 3 4 4 4 3 3 4 4 5 5 5 5 4 4 3 4 4 5 4 4 6 7 10 13 15 14 12 10 8 6 6 6 7 7 7 6 5 4
21 20 20 18 18 16 15 15 13 13 11 10 9 9 9 8 8 7 6 6 6 5 5 4 4 5 5 6 5 4 4 4 5 5 5 5 5 4 4 4 3 4 5 5 7 8 9 12 15 14 12 11 9 7 6 5 6 7 7 6 5 4
21 21 20 17 16 14 14 13 12 11 10 9 9 8 8 7 7 6 6 6 6 6 5 5 5 6 6 6 6 5 5 5 5 5 5 5 4 5 5 5 4 4 4 5 6 8 10 11 13 14 12 11 9 8 5 5 5 6 6 5 4 3
21 19 17 15 14 13 12 11 10 10 9 9 8 8 7 7 7 7 7 6 6 6 6 7 7 7 7 7 7 6 6 6 6 5 5 4 4 5 6 6 5 4 3 4 6 8 10 11 13 14 13 11 10 8 6 5 5 5 4 4 3 3
17 16 15 14 13 11 10 9 10 10 9 9 9 8 8 8 8 8 8 8 7 7 7 7 8 8 8 8 8 7 6 6 6 6 6 5 5 5 6 7 6 5 5 5 6 8 10 11 12 13 14 12 10 9 8 6 4 4 4 4 3 3
15 14 13 12 11 10 10 10 10 9 10 10 9 9 9 9 9 9 9 9 9 8 8 9 9 9 9 8 8 7 7 6 6 6 6 6 5 5 6 7 6 6 6 6 6 8 10 11 11 13 14 13 11 10 9 8 6 5 5 5 3 2
15 13 11 10 9 9 9 9 9 9 10 10 10 9 9 10 10 10 10 10 10 10 10 10 9 10 9 8 7 7 6 6 6 6 5 5 5 5 6 6 6 6 7 6 7 8 10 11 11 11 12 12 12 11 10 9 7 6 6 5 3 1
14 11 9 9 9 9 8 8 8 9 11 10 10 10 10 10 11 10 10 10 10 10 10 9 8 9 9 7 6 6 6 6 6 5 5 5 4 4 6 6 6 7 7 7 7 7 8 9 10 11 11 11 11 11 11 10 7 6 6 5 3 1
12 10 9 9 9 9 8 8 10 10 11 11 10 10 10 11 10 9 9 9 9 9 9 7 7 8 7 6 6 5 5 6 7 6 6 6 5 5 7 8 8 8 8 8 8 8 7 7 8 9 9 10 9 9 10 9 6 5 6 5 4 3
11 11 11 11 11 10 10 10 10 11 11 10 10 10 10 10 10 9 8 8 8 9 7 6 7 7 6 6 6 6 6 7 7 7 7 6 6 7 8 9 9 9 9 9 9 8 7 6 7 8 8 9 9 8 8 8 6 5 6 6 4 3
13 13 13 13 12 11 10 10 10 10 10 10 10 9 9 9 9 9 8 7 7 8 7 6 7 7 6 6 7 7 7 7 6 6 7 7 7 8 8 9 10 9 9 10 9 9 8 7 7 8 7 7 8 8 7 7 7 6 6 6 5 3
15 16 15 13 11 10 9 9 8 8 8 8 8 8 8 8 8 8 7 6 6 7 6 6 7 7 6 6 7 7 6 6 7 8 9 9 9 9 9 10 10 10 10 10 10 9 9 8 8 7 7 7 7 7 7 7 7 8 8 7 6 5
17 16 14 11 10 9 7 7 6 5 5 6 6 6 6 7 8 7 6 6 6 6 5 6 7 6 6 6 7 7 6 7 9 9 10 11 10 10 10 11 11 10 11 11 10 10 9 9 8 8 8 8 8 8 8 7 7 8 9 9 9 7
17 14 13 11 9 7 5 4 4 4 4 4 4 4 5 6 7 7 6 6 5 6 6 6 6 5 6 7 7 7 7 8 10 10 12 13 12 11 10 11 11 11 12 12 12 11 11 10 10 10 10 10 10 10 9 8 8 8 8 8 10 10
16 13 12 11 8 4 2 2 3 3 3 3 3 3 3 4 5 6 6 5 5 5 5 6 6 6 7 8 7 8 9 10 11 12 13 13 12 11 9 9 11 11 12 12 12 11 10 10 10 10 11 11 11 10 9 9 8 8 8 7 9 10
16 14 13 10 5 2 2 3 4 5 5 5 5 4 3 3 4 4 4 4 4 5 4 4 5 6 7 8 7 8 9 10 11 12 12 10 11 10 9 10 11 11 11 13 12 11 10 9 8 9 9 8 8 8 8 8 8 8 8 8 8 9
17 14 12 9 4 2 3 4 5 7 7 6 6 4 3 3 3 4 4 5 6 6 5 4 3 4 5 5 6 7 8 9 10 10 10 9 10 11 9 10 11 11 12 14 12 10 9 8 7 6 6 7 7 6 6 7 8 8 8 9 9 9
17 14 11 7 2 1 3 4 6 8 8 7 6 4 3 3 4 5 5 6 7 6 5 3 3 3 3 3 3 5 6 8 9 10 9 9 10 10 9 9 11 12 13 13 10 8 9 7 6 5 5 7 9 7 7 7 8 8 9 10 10 11
17 14 11 6 2 2 3 4 6 7 7 6 5 4 3 3 4 5 6 6 6 4 3 3 2 2 2 2 2 3 4 5 7 9 8 8 8 8 8 8 9 11 12 12 10 8 9 8 7 6 4 6 9 9 10 10 9 10 10 11 12 13
18 14 12 8 4 4 3 4 6 6 6 5 5 5 5 4 4 4 4 4 4 3 2 2 2 1 2 2 2 2 3 3 4 5 6 6 7 7 7 8 8 9 11 11 10 9 9 10 9 8 5 6 8 9 10 11 11 11 11 12 12 12
19 14 12 9 7 7 6 5 7 7 5 4 5 5 5 5 4 3 4 4 3 3 2 2 2 1 1 2 3 3 3 3 2 3 3 4 4 4 5 6 7 8 9 10 10 9 10 11 11 9 6 6 7 7 8 9 9 9 10 11 11 11
19 15 13 10 10 9 7 7 8 6 4 4 4 4 4 5 6 6 6 6 6 4 2 1 1 1 2 3 3 4 4 4 3 3 2 1 1 1 1 3 5 7 8 9 10 11 10 11 13 12 9 7 6 6 6 6 6 5 6 7 7 8
19 17 14 12 12 11 9 8 6 4 2 3 3 3 3 4 6 7 7 8 8 7 5 3 3 2 1 1 1 1 2 2 3 2 1 1 2 2 1 1 2 3 5 7 8 9 9 10 12 11 10 10 8 6 5 5 4 3 3 3 2 3
19 17 15 14 14 13 10 8 5 2 1 1 2 2 3 3 4 5 6 7 7 7 5 4 4 3 1 2 3 3 3 3 3 3 4 4 4 5 4 4 3 1 1 3 4 6 7 9 10 10 9 10 10 8 6 5 4 3 3 3 4 3
20 18 17 16 15 13 11 8 6 4 2 1 1 2 2 3 4 4 5 5 6 6 5 4 3 3 2 2 3 3 4 4 4 4 5 5 5 4 3 2 2 3 3 2 1 2 4 6 7 8 8 9 8 7 5 4 3 3 2 4 7 5
20 19 19 18 16 14 11 8 6 4 3 2 3 3 3 4 4 4 4 5 5 5 5 4 3 3 3 2 2 3 4 4 3 3 3 3 2 2 2 2 2 2 4 5 4 3 2 2 2 4 5 7 8 6 6 5 3 3 3 6 10 8
22 21 21 19 16 15 12 9 6 4 3 4 4 4 4 4 4 4 4 5 5 5 5 5 4 4 3 3 3 4 5 4 2 1 1 1 2 2 3 2 1 3 5 6 7 7 6 5 4 2 1 2 5 4 5 5 3 2 2 5 10 12
24 23 23 20 18 16 13 9 7 4 3 5 5 4 4 4 4 4 5 5 4 4 4 4 4 3 3 3 4 5 6 4 3 3 3 3 3 2 1 2 4 6 6 7 7 8 7 8 7 5 6 5 3 2 3 5 5 4 3 5 8 10
26 24 23 21 19 17 13 9 8 5 4 5 5 4 4 4 4 4 5 4 3 3 4 4 4 3 3 3 5 6 6 6 7 7 7 7 7 7 7 8 8 8 7 7 7 8 7 8 7 6 7 7 5 5 6 6 5 3 3 3 4 6
27 25 23 22 19 16 13 11 10 7 5 6 6 5 4 3 3 3 3 3 3 3 3 4 3 2 2 3 4 5 6 7 8 8 8 7 7 8 8 9 9 9 9 9 10 9 9 9 9 7 7 6 5 4 4 3 3 3 3 2 2 5
28 26 24 22 19 15 13 13 11 9 7 7 7 5 4 2 1 1 2 2 2 3 3 3 3 3 3 3 3 4 5 5 6 6 6 6 6 7 7 8 8 8 8 9 10 10 10 10 9 9 9 8 7 6 5 5 5 5 6 5 5 5
26 23 22 19 17 15 14 13 12 10 9 8 8 6 6 3 2 2 1 2 2 3 3 2 3 4 4 4 4 4 3 2 4 4 5 5 6 7 8 8 8 8 8 9 9 9 9 9 10 10 10 9 9 8 8 8 8 7 7 7 6 5
21 17 18 16 16 17 17 16 13 12 12 10 9 8 8 6 5 4 3 2 2 2 2 2 2 3 4 5 5 5 3 2 2 3 4 6 7 9 10 10 11 10 10 11 11 10 11 11 11 11 11 10 9 9 9 10 10 10 10 9 8 6
16 14 17 17 18 20 21 20 16 14 13 12 10 10 9 8 6 5 6 4 2 1 2 1 2 2 3 4 5 5 4 3 2 3 3 5 6 8 10 11 12 12 12 13 13 13 13 12 13 12 12 12 11 11 12 12 12 12 12 12 11 9
Wind_Direction
165 163 163 162 164 167 166 166 164 166 168 170 168 165 164 163 166 166 166 164 163 163 163 168 160 163 172 173 179 179 190 187 181 179 172 166 154 142 135 124 114 127 155 180 193 199 199 198 199 205 212 213 191 159 153 153 149 140 129 118 110 103
167 166 167 166 168 170 169 169 168 170 172 174 171 169 169 168 171 168 166 168 170 173 174 182 172 184 238 241 207 182 190 191 184 183 180 174 163 154 141 134 125 122 144 173 193 202 203 200 199 204 212 212 192 162 156 156 153 148 137 126 117 105
171 170 170 170 172 175 174 172 175 177 177 179 177 173 176 175 174 173 175 179 182 186 192 205 219 240 261 268 261 223 201 195 187 185 184 183 179 177 159 143 140 138 146 169 189 202 206 203 200 202 210 213 202 178 166 163 162 160 149 137 128 110
174 172 172 175 176 179 178 177 181 183 184 188 186 181 184 183 181 182 185 190 193 197 208 225 246 259 273 280 277 254 225 210 193 190 188 188 191 191 189 170 152 153 161 177 191 199 205 205 202 202 207 213 209 196 182 174 173 174 166 153 140 121
174 173 174 179 180 180 181 184 186 188 192 196 198 193 193 195 193 194 195 201 204 208 221 236 257 264 276 284 282 267 244 228 204 199 195 191 196 200 205 196 177 172 175 187 196 199 204 206 205 204 205 209 210 204 188 175 176 180 179 168 150 133
176 176 177 178 180 182 185 190 192 196 201 204 208 206 206 209 208 210 211 217 216 218 230 242 255 263 274 281 283 274 252 235 218 210 204 201 207 211 213 207 209 205 187 195 203 204 206 207 208 207 205 206 209 208 193 174 171 177 181 174 156 139
181 178 176 177 181 186 191 195 199 205 211 214 217 218 221 224 225 228 227 232 231 228 237 247 256 264 274 278 279 276 257 239 233 227 220 223 224 225 224 218 225 229 211 206 207 208 208 205 207 208 207 205 206 208 202 183 171 175 186 187 171 156
186 179 176 181 184 189 197 203 210 215 221 224 227 228 231 234 235 237 237 241 242 242 246 255 262 267 273 274 274 272 257 241 240 234 230 235 230 231 232 226 235 237 227 218 209 209 208 204 204 206 207 205 204 210 212 203 185 184 200 208 199 174
191 187 183 187 188 196 206 214 221 228 233 237 238 239 241 242 245 244 245 249 251 253 253 256 261 266 269 270 272 268 254 240 238 234 229 235 231 228 227 228 240 239 231 223 209 206 206 206 205 205 207 207 207 211 217 215 202 196 207 217 221 189
198 195 192 195 199 207 215 221 227 233 237 241 242 245 249 251 254 252 252 255 256 256 253 251 252 258 264 265 269 266 257 246 243 240 237 241 234 224 224 229 240 235 228 221 208 202 204 208 211 210 208 208 210 212 217 221 216 207 210 219 234 267
202 201 198 199 204 209 215 220 224 230 234 237 239 244 249 251 254 255 255 253 253 254 250 250 250 255 262 264 268 270 267 260 253 251 250 250 239 226 226 232 242 235 226 220 207 196 199 206 216 220 213 209 211 214 221 227 227 212 209 217 217 214
198 198 196 196 197 199 205 213 219 223 228 231 233 239 244 248 252 255 254 249 248 251 248 248 249 251 257 261 258 261 269 262 254 250 250 251 242 234 229 230 236 234 225 219 205 193 195 203 212 216 214 212 209 209 214 218 216 201 199 199 192 195
189 189 190 193 191 191 198 207 213 217 222 226 228 234 239 247 254 252 251 248 248 254 255 247 244 243 244 250 247 244 251 251 246 240 240 245 240 234 230 229 231 228 222 216 207 200 200 203 207 208 208 212 210 205 203 202 202 200 194 189 184 199
184 186 188 189 185 182 189 199 207 212 217 221 226 233 239 247 253 253 255 256 256 262 263 247 239 238 235 240 242 243 249 249 247 238 235 239 239 235 229 230 230 225 218 216 213 210 208 208 211 211 211 212 212 212 212 213 219 219 210 202 201 207
181 184 185 181 174 173 180 190 201 209 212 218 225 232 238 241 245 253 260 261 260 260 259 248 238 235 238 240 240 246 255 253 245 240 238 236 238 240 233 230 231 224 218 219 219 217 217 219 223 226 226 225 226 230 234 237 240 237 233 231 226 220
179 181 179 172 167 168 174 186 197 204 203 208 215 224 234 237 240 245 250 254 258 257 253 252 247 238 241 244 242 242 244 243 238 238 239 233 234 238 233 229 227 223 220 221 224 223 226 231 236 242 243 245 250 254 256 255 253 249 247 246 241 235
179 176 175 171 169 164 171 190 201 204 201 210 217 234 242 242 246 246 249 258 266 265 258 255 253 245 243 242 241 239 234 236 235 235 238 236 240 244 236 229 228 225 222 221 224 227 230 237 244 252 257 261 265 270 271 267 263 259 255 248 243 242
178 178 179 176 171 165 195 224 229 232 239 263 279 283 269 253 254 258 267 280 286 282 276 270 261 250 248 246 246 242 233 232 234 238 243 245 252 257 250 242 234 227 226 224 224 227 232 242 252 259 262 263 267 272 273 270 265 261 261 253 244 240
182 185 185 180 179 196 272 274 271 282 292 303 310 305 291 275 271 287 304 315 321 317 315 298 273 253 248 247 243 240 232 231 236 243 247 251 258 260 258 255 243 233 233 230 225 227 235 244 256 264 260 250 251 260 261 263 260 255 258 258 252 245
188 192 192 185 187 232 281 297 305 310 311 313 319 317 308 297 299 317 328 334 332 328 330 323 300 279 263 252 242 239 235 233 236 241 241 242 250 251 248 255 256 250 247 241 233 228 231 240 255 263 252 228 220 229 240 250 254 256 262 264 266 260
193 198 201 190 186 249 289 318 325 326 320 315 319 319 315 306 305 311 312 320 324 322 331 339 335 320 299 287 256 240 239 235 233 235 231 228 236 240 237 243 249 250 250 251 247 234 226 229 243 253 242 223 218 221 231 242 250 257 263 265 268 264
200 203 203 194 192 243 283 307 316 323 318 311 312 310 301 295 298 298 301 310 313 316 329 341 348 341 318 300 257 235 234 232 232 235 231 224 224 229 231 235 239 242 249 254 255 243 229 223 232 241 238 226 226 230 236 244 250 254 257 259 263 264
208 206 201 193 190 210 243 281 291 299 301 301 307 308 300 297 297 293 307 316 311 310 309 322 335 333 309 277 259 250 235 230 230 230 227 221 219 221 228 238 243 243 246 252 253 246 231 224 232 240 235 225 229 234 240 245 248 251 254 256 258 261
210 207 203 196 192 204 221 248 263 268 275 287 298 307 308 310 316 319 339 349 336 315 284 291 308 282 266 256 253 254 247 241 227 218 218 220 221 220 222 236 247 244 241 244 246 244 232 225 230 234 230 222 221 228 240 245 243 244 249 254 257 258
208 206 208 200 193 203 215 229 245 253 260 277 288 302 316 323 329 333 341 348 345 343 339 332 333 276 253 258 257 249 249 243 231 226 219 205 183 186 209 229 243 245 238 237 237 237 233 228 231 230 223 217 214 219 233 238 238 242 245 249 254 256
205 207 212 203 192 200 211 220 234 251 275 298 306 310 327 330 328 327 334 339 340 345 359 13 19 21 289 302 333 246 232 214 207 207 173 108 89 98 105 158 226 244 238 237 233 231 228 229 235 233 226 228 229 226 227 233 238 240 229 210 208 236
206 211 215 206 193 197 207 210 209 208 252 331 333 325 327 325 319 319 326 334 336 338 348 1 11 24 38 41 56 82 97 111 117 110 107 99 97 104 104 103 87 57 232 236 233 231 225 226 235 234 230 233 234 233 231 237 242 228 211 171 146 172
211 216 218 209 197 197 205 205 197 192 190 243 290 310 313 311 312 312 318 331 333 330 336 351 12 31 55 59 60 77 92 100 104 104 104 98 96 94 85 70 38 34 54 83 160 218 218 222 233 232 229 230 228 226 209 203 212 198 186 123 119 144
217 220 219 210 199 201 207 202 198 199 202 241 266 284 297 295 302 311 318 330 331 327 331 340 7 45 77 79 60 71 83 95 107 116 108 79 37 5 346 337 351 40 72 80 85 93 120 158 207 221 231 230 218 191 156 157 161 164 162 112 107 113
225 223 217 208 199 203 207 200 197 204 228 263 278 293 295 286 295 314 321 325 329 333 337 337 357 48 80 76 60 54 48 50 78 119 122 26 345 326 305 294 153 121 103 93 90 89 92 92 94 101 61 214 201 180 155 154 130 98 126 118 113 113
227 221 213 205 199 203 207 201 199 207 249 278 292 299 288 284 305 325 322 324 334 344 352 349 354 37 64 56 39 27 22 31 65 101 106 95 86 73 69 112 127 126 117 108 98 92 94 93 89 81 70 80 112 96 78 95 95 89 98 114 123 124
224 217 209 204 202 207 209 207 209 216 243 272 289 292 280 288 321 334 323 325 349 3 14 14 8 24 44 41 26 28 49 68 83 96 99 96 90 82 80 87 99 106 105 102 97 93 98 100 95 89 85 82 80 70 63 72 82 91 93 97 126 141
216 210 205 204 207 213 220 223 222 221 233 258 276 274 256 280 332 345 331 342 21 31 37 38 38 47 57 47 35 49 74 79 83 89 92 92 90 85 83 84 89 93 90 87 88 90 93 95 94 94 95 93 88 84 73 68 69 68 71 74 107 139
206 203 202 204 209 216 227 232 228 228 232 247 266 254 224 236 9 13 353 31 60 62 66 64 73 94 103 88 72 75 77 73 77 80 78 80 81 83 85 87 89 90 91 90 90 92 91 90 89 88 87 86 83 80 73 70 70 71 77 86 97 121
198 201 205 209 217 223 231 232 227 230 234 241 254 236 205 187 130 121 108 91 85 82 87 89 102 116 123 122 116 108 96 76 74 73 73 76 77 82 83 84 87 87 90 92 92 94 94 92 91 89 85 82 78 77 73 69 66 63 66 74 87 102
188 203 218 225 233 234 236 235 228 228 234 239 241 224 200 174 148 151 155 131 95 99 117 117 120 133 142 144 142 136 136 128 99 89 88 87 85 87 86 85 86 87 87 88 88 89 89 88 89 87 85 82 79 78 76 71 67 65 64 66 73 82
181 212 228 235 243 242 241 238 228 225 233 240 237 219 194 172 168 175 163 154 182 200 167 155 151 155 160 164 162 158 159 165 153 130 113 105 98 94 94 93 93 91 89 89 90 90 90 89 89 87 84 84 83 81 78 75 72 70 68 67 69 76